Time,TemperatureF,DewpointF,PressureIn,WindDirection,WindDirectionDegrees,WindSpeedMPH,WindSpeedGustMPH,Humidity,HourlyPrecipIn,Conditions,Clouds,dailyrainin,SoftwareType,DateUTC
2013-01-28 00:00:00,33.9,25.8,23.28,ESE,111,0.0,1.0,72,0.00,,,0.00,VWS V13.01,2013-01-28 05:00:00,
2013-01-28 00:02:00,33.9,25.5,23.28,ESE,111,0.0,0.0,71,0.00,,,0.00,VWS V13.01,2013-01-28 05:02:00,
2013-01-28 00:03:00,33.9,25.5,23.28,ESE,111,0.0,1.0,71,0.00,,,0.00,VWS V13.01,2013-01-28 05:03:00,
2013-01-28 00:05:00,33.9,25.5,23.28,ESE,111,0.0,0.0,71,0.00,,,0.00,VWS V13.01,2013-01-28 05:05:00,
2013-01-28 00:08:00,34.4,26.7,23.28,ESE,111,0.0,1.0,73,0.00,,,0.00,VWS V13.01,2013-01-28 05:08:00,
2013-01-28 00:10:00,33.9,25.8,23.28,ESE,111,0.0,1.0,72,0.00,,,0.00,VWS V13.01,2013-01-28 05:10:00,
2013-01-28 00:13:00,34.6,26.5,23.28,East,101,1.0,2.0,72,0.00,,,0.00,VWS V13.01,2013-01-28 05:13:00,
2013-01-28 00:15:00,34.2,26.5,23.28,ESE,111,0.0,2.0,73,0.00,,,0.00,VWS V13.01,2013-01-28 05:15:00,
2013-01-28 00:18:00,35.1,27.3,23.28,East,101,0.0,1.0,73,0.00,,,0.00,VWS V13.01,2013-01-28 05:18:00,
2013-01-28 00:20:00,34.5,26.4,23.28,ESE,111,1.0,2.0,72,0.00,,,0.00,VWS V13.01,2013-01-28 05:20:00,
2013-01-28 00:23:00,34.5,26.1,23.28,East,101,0.0,1.0,71,0.00,,,0.00,VWS V13.01,2013-01-28 05:23:00,
2013-01-28 00:25:00,35.0,27.2,23.28,East,101,1.0,2.0,73,0.00,,,0.00,VWS V13.01,2013-01-28 05:25:00,
2013-01-28 00:28:00,33.9,25.5,23.28,East,101,1.0,3.0,71,0.00,,,0.00,VWS V13.01,2013-01-28 05:28:00,
2013-01-28 00:30:00,34.8,26.7,23.28,East,101,0.0,1.0,72,0.00,,,0.00,VWS V13.01,2013-01-28 05:30:00,
2013-01-28 00:33:00,33.8,26.1,23.28,East,101,0.0,1.0,73,0.00,,,0.00,VWS V13.01,2013-01-28 05:33:00,
2013-01-28 00:35:00,34.2,25.8,23.28,East,101,0.0,1.0,71,0.00,,,0.00,VWS V13.01,2013-01-28 05:35:00,
2013-01-28 00:38:00,34.1,26.4,23.28,East,101,1.0,1.0,73,0.00,,,0.00,VWS V13.01,2013-01-28 05:38:00,
2013-01-28 00:40:00,33.8,26.1,23.28,East,101,0.0,3.0,73,0.00,,,0.00,VWS V13.01,2013-01-28 05:40:00,
2013-01-28 00:43:00,34.4,27.3,23.28,East,100,0.0,2.0,75,0.00,,,0.00,VWS V13.01,2013-01-28 05:43:00,
2013-01-28 00:45:00,33.9,26.2,23.28,East,101,0.0,1.0,73,0.00,,,0.00,VWS V13.01,2013-01-28 05:45:00,
2013-01-28 00:48:00,34.4,26.3,23.28,East,100,0.0,2.0,72,0.00,,,0.00,VWS V13.01,2013-01-28 05:48:00,
2013-01-28 00:50:00,34.4,27.0,23.28,East,101,2.0,3.0,74,0.00,,,0.00,VWS V13.01,2013-01-28 05:50:00,
2013-01-28 00:53:00,34.4,27.0,23.28,East,101,0.0,2.0,74,0.00,,,0.00,VWS V13.01,2013-01-28 05:53:00,
2013-01-28 00:55:00,34.4,26.7,23.28,East,101,0.0,2.0,73,0.00,,,0.00,VWS V13.01,2013-01-28 05:55:00,
2013-01-28 00:58:00,34.5,27.1,23.28,East,99,1.0,2.0,74,0.00,,,0.00,VWS V13.01,2013-01-28 05:58:00,
2013-01-28 01:00:00,34.4,27.0,23.28,East,101,0.0,2.0,74,0.00,,,0.00,VWS V13.01,2013-01-28 06:00:00,
2013-01-28 01:03:00,35.1,27.3,23.28,East,100,0.0,2.0,73,0.00,,,0.00,VWS V13.01,2013-01-28 06:03:00,
2013-01-28 01:05:00,34.4,26.7,23.28,East,100,0.0,2.0,73,0.00,,,0.00,VWS V13.01,2013-01-28 06:05:00,
2013-01-28 01:08:00,35.1,27.3,23.28,East,100,1.0,2.0,73,0.00,,,0.00,VWS V13.01,2013-01-28 06:08:00,
2013-01-28 01:10:00,35.1,27.7,23.28,East,99,2.0,2.0,74,0.00,,,0.00,VWS V13.01,2013-01-28 06:10:00,
2013-01-28 01:13:00,35.2,27.8,23.28,East,99,0.0,1.0,74,0.00,,,0.00,VWS V13.01,2013-01-28 06:13:00,
2013-01-28 01:15:00,35.1,27.3,23.28,East,99,1.0,2.0,73,0.00,,,0.00,VWS V13.01,2013-01-28 06:15:00,
2013-01-28 01:18:00,35.5,28.0,23.28,East,99,0.0,1.0,74,0.00,,,0.00,VWS V13.01,2013-01-28 06:18:00,
2013-01-28 01:20:00,35.2,27.8,23.28,East,100,0.0,2.0,74,0.00,,,0.00,VWS V13.01,2013-01-28 06:20:00,
2013-01-28 01:23:00,35.4,27.3,23.28,East,99,1.0,2.0,72,0.00,,,0.00,VWS V13.01,2013-01-28 06:23:00,
2013-01-28 01:25:00,35.5,27.7,23.28,East,99,0.0,2.0,73,0.00,,,0.00,VWS V13.01,2013-01-28 06:25:00,
2013-01-28 01:28:00,35.3,27.5,23.28,East,100,0.0,1.0,73,0.00,,,0.00,VWS V13.01,2013-01-28 06:28:00,
2013-01-28 01:30:00,35.5,27.7,23.28,East,99,1.0,2.0,73,0.00,,,0.00,VWS V13.01,2013-01-28 06:30:00,
2013-01-28 01:33:00,35.4,28.0,23.28,East,100,2.0,2.0,74,0.00,,,0.00,VWS V13.01,2013-01-28 06:33:00,
2013-01-28 01:35:00,35.4,27.6,23.28,East,99,1.0,2.0,73,0.00,,,0.00,VWS V13.01,2013-01-28 06:35:00,
2013-01-28 01:38:00,35.3,27.5,23.28,East,97,0.0,1.0,73,0.00,,,0.00,VWS V13.01,2013-01-28 06:38:00,
2013-01-28 01:40:00,35.4,28.0,23.28,East,100,1.0,2.0,74,0.00,,,0.00,VWS V13.01,2013-01-28 06:40:00,
2013-01-28 01:43:00,35.2,27.4,23.28,East,96,0.0,1.0,73,0.00,,,0.00,VWS V13.01,2013-01-28 06:43:00,
2013-01-28 01:45:00,35.4,27.6,23.28,East,96,1.0,4.0,73,0.00,,,0.00,VWS V13.01,2013-01-28 06:45:00,
2013-01-28 01:48:00,34.9,26.8,23.28,East,96,0.0,0.0,72,0.00,,,0.00,VWS V13.01,2013-01-28 06:48:00,
2013-01-28 01:50:00,35.2,27.4,23.28,East,96,0.0,1.0,73,0.00,,,0.00,VWS V13.01,2013-01-28 06:50:00,
2013-01-28 01:53:00,34.9,27.8,23.28,East,96,0.0,1.0,75,0.00,,,0.00,VWS V13.01,2013-01-28 06:53:00,
2013-01-28 01:55:00,35.0,27.2,23.28,East,97,0.0,2.0,73,0.00,,,0.00,VWS V13.01,2013-01-28 06:55:00,
2013-01-28 01:58:00,35.1,28.0,23.28,East,97,0.0,2.0,75,0.00,,,0.00,VWS V13.01,2013-01-28 06:58:00,
2013-01-28 02:00:00,34.8,27.4,23.28,East,97,0.0,2.0,74,0.00,,,0.00,VWS V13.01,2013-01-28 07:00:00,
2013-01-28 02:03:00,35.0,27.6,23.28,East,97,0.0,1.0,74,0.00,,,0.00,VWS V13.01,2013-01-28 07:03:00,
2013-01-28 02:05:00,35.0,27.9,23.28,East,97,0.0,2.0,75,0.00,,,0.00,VWS V13.01,2013-01-28 07:05:00,
2013-01-28 02:08:00,34.6,27.2,23.28,East,97,1.0,1.0,74,0.00,,,0.00,VWS V13.01,2013-01-28 07:08:00,
2013-01-28 02:10:00,35.0,27.6,23.28,East,96,0.0,2.0,74,0.00,,,0.00,VWS V13.01,2013-01-28 07:10:00,
2013-01-28 02:13:00,34.3,26.9,23.28,East,96,1.0,1.0,74,0.00,,,0.00,VWS V13.01,2013-01-28 07:13:00,
2013-01-28 02:15:00,34.7,27.3,23.28,East,97,0.0,2.0,74,0.00,,,0.00,VWS V13.01,2013-01-28 07:15:00,
2013-01-28 02:18:00,34.2,26.8,23.28,East,100,0.0,2.0,74,0.00,,,0.00,VWS V13.01,2013-01-28 07:18:00,
2013-01-28 02:20:00,34.4,26.7,23.28,East,97,0.0,1.0,73,0.00,,,0.00,VWS V13.01,2013-01-28 07:20:00,
2013-01-28 02:23:00,33.6,26.2,23.28,East,94,1.0,3.0,74,0.00,,,0.00,VWS V13.01,2013-01-28 07:23:00,
2013-01-28 02:25:00,34.3,27.2,23.28,East,100,1.0,3.0,75,0.00,,,0.00,VWS V13.01,2013-01-28 07:25:00,
2013-01-28 02:28:00,33.7,26.6,23.28,ENE,78,0.0,2.0,75,0.00,,,0.00,VWS V13.01,2013-01-28 07:28:00,
2013-01-28 02:30:00,33.8,26.4,23.28,East,95,2.0,3.0,74,0.00,,,0.00,VWS V13.01,2013-01-28 07:30:00,
2013-01-28 02:33:00,34.0,26.9,23.28,ENE,78,1.0,2.0,75,0.00,,,0.00,VWS V13.01,2013-01-28 07:33:00,
2013-01-28 02:35:00,33.8,26.7,23.28,East,79,1.0,4.0,75,0.00,,,0.00,VWS V13.01,2013-01-28 07:35:00,
2013-01-28 02:38:00,33.7,26.3,23.28,East,85,1.0,2.0,74,0.00,,,0.00,VWS V13.01,2013-01-28 07:38:00,
2013-01-28 02:40:00,34.1,27.3,23.28,ENE,78,1.0,2.0,76,0.00,,,0.00,VWS V13.01,2013-01-28 07:40:00,
2013-01-28 02:43:00,33.6,26.5,23.28,East,84,0.0,2.0,75,0.00,,,0.00,VWS V13.01,2013-01-28 07:43:00,
2013-01-28 02:45:00,33.8,26.4,23.28,East,87,1.0,4.0,74,0.00,,,0.00,VWS V13.01,2013-01-28 07:45:00,
2013-01-28 02:48:00,33.6,26.5,23.28,East,79,1.0,3.0,75,0.00,,,0.00,VWS V13.01,2013-01-28 07:48:00,
2013-01-28 02:50:00,33.6,26.5,23.28,East,84,2.0,3.0,75,0.00,,,0.00,VWS V13.01,2013-01-28 07:50:00,
2013-01-28 02:53:00,33.6,26.5,23.28,ESE,104,0.0,4.0,75,0.00,,,0.00,VWS V13.01,2013-01-28 07:53:00,
2013-01-28 02:55:00,33.6,26.5,23.28,East,84,1.0,2.0,75,0.00,,,0.00,VWS V13.01,2013-01-28 07:55:00,
2013-01-28 02:58:00,33.7,26.6,23.28,East,80,1.0,3.0,75,0.00,,,0.00,VWS V13.01,2013-01-28 07:58:00,
2013-01-28 03:00:00,33.6,26.5,23.28,ENE,57,1.0,4.0,75,0.00,,,0.00,VWS V13.01,2013-01-28 08:00:00,
2013-01-28 03:03:00,34.0,26.9,23.28,East,82,4.0,4.0,75,0.00,,,0.00,VWS V13.01,2013-01-28 08:03:00,
2013-01-28 03:05:00,33.7,26.6,23.28,East,84,3.0,4.0,75,0.00,,,0.00,VWS V13.01,2013-01-28 08:05:00,
2013-01-28 03:08:00,33.9,26.8,23.28,ENE,75,0.0,2.0,75,0.00,,,0.00,VWS V13.01,2013-01-28 08:08:00,
2013-01-28 03:10:00,34.0,26.9,23.28,ENE,78,0.0,3.0,75,0.00,,,0.00,VWS V13.01,2013-01-28 08:10:00,
2013-01-28 03:13:00,34.1,27.0,23.28,ENE,76,1.0,3.0,75,0.00,,,0.00,VWS V13.01,2013-01-28 08:13:00,
2013-01-28 03:15:00,33.9,26.8,23.28,ENE,76,0.0,4.0,75,0.00,,,0.00,VWS V13.01,2013-01-28 08:15:00,
2013-01-28 03:18:00,34.3,26.9,23.28,ENE,72,0.0,1.0,74,0.00,,,0.00,VWS V13.01,2013-01-28 08:18:00,
2013-01-28 03:20:00,34.0,26.6,23.28,ENE,75,0.0,3.0,74,0.00,,,0.00,VWS V13.01,2013-01-28 08:20:00,
2013-01-28 03:23:00,34.2,26.8,23.28,ENE,78,0.0,3.0,74,0.00,,,0.00,VWS V13.01,2013-01-28 08:23:00,
2013-01-28 03:25:00,34.2,26.8,23.28,ENE,72,0.0,4.0,74,0.00,,,0.00,VWS V13.01,2013-01-28 08:25:00,
2013-01-28 03:28:00,34.1,26.4,23.28,East,91,0.0,4.0,73,0.00,,,0.00,VWS V13.01,2013-01-28 08:28:00,
2013-01-28 03:30:00,34.3,26.9,23.28,ENE,78,1.0,5.0,74,0.00,,,0.00,VWS V13.01,2013-01-28 08:30:00,
2013-01-28 03:33:00,34.4,27.3,23.28,ENE,61,1.0,2.0,75,0.00,,,0.00,VWS V13.01,2013-01-28 08:33:00,
2013-01-28 03:35:00,34.1,26.4,23.28,East,92,4.0,5.0,73,0.00,,,0.00,VWS V13.01,2013-01-28 08:35:00,
2013-01-28 03:38:00,34.4,26.7,23.28,ENE,76,1.0,2.0,73,0.00,,,0.00,VWS V13.01,2013-01-28 08:38:00,
2013-01-28 03:40:00,34.3,26.9,23.28,ENE,61,0.0,4.0,74,0.00,,,0.00,VWS V13.01,2013-01-28 08:40:00,
2013-01-28 03:43:00,34.4,26.7,23.28,ENE,76,0.0,1.0,73,0.00,,,0.00,VWS V13.01,2013-01-28 08:43:00,
2013-01-28 03:45:00,34.4,26.7,23.28,ENE,73,0.0,3.0,73,0.00,,,0.00,VWS V13.01,2013-01-28 08:45:00,
2013-01-28 03:48:00,34.4,26.7,23.28,ESE,109,0.0,4.0,73,0.00,,,0.00,VWS V13.01,2013-01-28 08:48:00,
2013-01-28 03:50:00,34.4,26.7,23.28,ENE,76,1.0,3.0,73,0.00,,,0.00,VWS V13.01,2013-01-28 08:50:00,
2013-01-28 03:53:00,34.4,27.0,23.28,ENE,74,2.0,3.0,74,0.00,,,0.00,VWS V13.01,2013-01-28 08:53:00,
2013-01-28 03:55:00,34.4,26.7,23.28,East,98,0.0,3.0,73,0.00,,,0.00,VWS V13.01,2013-01-28 08:55:00,
2013-01-28 03:58:00,34.4,26.7,23.28,ENE,75,1.0,2.0,73,0.00,,,0.00,VWS V13.01,2013-01-28 08:58:00,
2013-01-28 04:00:00,34.4,26.7,23.28,ENE,76,0.0,5.0,73,0.00,,,0.00,VWS V13.01,2013-01-28 09:00:00,
2013-01-28 04:03:00,34.4,26.7,23.28,East,84,2.0,3.0,73,0.00,,,0.00,VWS V13.01,2013-01-28 09:03:00,
2013-01-28 04:08:00,34.4,26.7,23.28,NE,46,4.0,4.0,73,0.00,,,0.00,VWS V13.01,2013-01-28 09:08:00,
2013-01-28 04:13:00,34.4,26.3,23.28,NE,51,1.0,6.0,72,0.00,,,0.00,VWS V13.01,2013-01-28 09:13:00,
2013-01-28 04:18:00,34.4,26.7,23.28,East,99,0.0,2.0,73,0.00,,,0.00,VWS V13.01,2013-01-28 09:18:00,
2013-01-28 04:23:00,34.4,26.3,23.28,ESE,117,4.0,6.0,72,0.00,,,0.00,VWS V13.01,2013-01-28 09:23:00,
2013-01-28 04:28:00,34.4,26.7,23.28,East,101,3.0,5.0,73,0.00,,,0.00,VWS V13.01,2013-01-28 09:28:00,
2013-01-28 04:33:00,34.4,26.7,23.28,ENE,73,5.0,5.0,73,0.00,,,0.00,VWS V13.01,2013-01-28 09:33:00,
2013-01-28 04:38:00,34.4,27.0,23.28,East,92,3.0,4.0,74,0.00,,,0.00,VWS V13.01,2013-01-28 09:38:00,
2013-01-28 04:43:00,34.4,27.0,23.28,NE,41,1.0,6.0,74,0.00,,,0.00,VWS V13.01,2013-01-28 09:43:00,
2013-01-28 04:48:00,34.4,27.0,23.28,East,80,2.0,6.0,74,0.00,,,0.00,VWS V13.01,2013-01-28 09:48:00,
2013-01-28 04:53:00,34.4,27.3,23.28,ESE,103,5.0,7.0,75,0.00,,,0.00,VWS V13.01,2013-01-28 09:53:00,
2013-01-28 04:58:00,34.4,27.3,23.28,East,95,5.0,5.0,75,0.00,,,0.00,VWS V13.01,2013-01-28 09:58:00,
2013-01-28 05:03:00,34.4,27.6,23.28,ESE,109,5.0,6.0,76,0.00,,,0.00,VWS V13.01,2013-01-28 10:03:00,
2013-01-28 05:08:00,34.1,27.7,23.28,ESE,103,4.0,6.0,77,0.00,,,0.00,VWS V13.01,2013-01-28 10:08:00,
2013-01-28 05:13:00,34.3,28.2,23.28,ENE,71,2.0,6.0,78,0.00,,,0.00,VWS V13.01,2013-01-28 10:13:00,
2013-01-28 05:18:00,34.1,28.3,23.28,ESE,105,2.0,4.0,79,0.00,,,0.00,VWS V13.01,2013-01-28 10:18:00,
2013-01-28 05:23:00,34.2,28.7,23.28,East,96,3.0,5.0,80,0.00,,,0.00,VWS V13.01,2013-01-28 10:23:00,
2013-01-28 05:28:00,34.0,28.5,23.28,East,79,2.0,6.0,80,0.00,,,0.00,VWS V13.01,2013-01-28 10:28:00,
2013-01-28 05:33:00,33.9,28.7,23.28,SE,129,2.0,3.0,81,0.00,,,0.00,VWS V13.01,2013-01-28 10:33:00,
2013-01-28 05:38:00,33.8,28.6,23.28,ENE,63,3.0,5.0,81,0.00,,,0.00,VWS V13.01,2013-01-28 10:38:00,
2013-01-28 05:43:00,34.0,29.1,23.28,ENE,73,4.0,7.0,82,0.00,,,0.00,VWS V13.01,2013-01-28 10:43:00,
2013-01-28 05:48:00,34.1,29.2,23.28,NNE,32,3.0,4.0,82,0.00,,,0.00,VWS V13.01,2013-01-28 10:48:00,
2013-01-28 05:53:00,34.2,29.3,23.28,ESE,114,2.0,3.0,82,0.00,,,0.00,VWS V13.01,2013-01-28 10:53:00,
2013-01-28 05:58:00,34.3,29.4,23.28,ENE,66,2.0,5.0,82,0.00,,,0.00,VWS V13.01,2013-01-28 10:58:00,
2013-01-28 06:03:00,34.2,29.6,23.28,East,83,4.0,6.0,83,0.00,,,0.00,VWS V13.01,2013-01-28 11:03:00,
2013-01-28 06:08:00,33.9,29.3,23.28,NE,50,4.0,8.0,83,0.00,,,0.00,VWS V13.01,2013-01-28 11:08:00,
2013-01-28 06:13:00,33.8,29.2,23.28,ENE,58,3.0,5.0,83,0.00,,,0.00,VWS V13.01,2013-01-28 11:13:00,
2013-01-28 06:18:00,33.7,29.4,23.28,ESE,122,5.0,6.0,84,0.00,,,0.00,VWS V13.01,2013-01-28 11:18:00,
2013-01-28 06:23:00,33.6,29.3,23.28,ENE,57,2.0,8.0,84,0.00,,,0.01,VWS V13.01,2013-01-28 11:23:00,
2013-01-28 06:28:00,33.6,29.6,23.28,NE,51,3.0,4.0,85,0.01,,,0.01,VWS V13.01,2013-01-28 11:28:00,
2013-01-28 06:33:00,33.6,29.6,23.28,NE,53,6.0,6.0,85,0.01,,,0.01,VWS V13.01,2013-01-28 11:33:00,
2013-01-28 06:38:00,33.5,29.5,23.28,NE,45,4.0,7.0,85,0.01,,,0.01,VWS V13.01,2013-01-28 11:38:00,
2013-01-28 06:43:00,33.5,29.5,23.28,ESE,104,9.0,10.0,85,0.01,,,0.01,VWS V13.01,2013-01-28 11:43:00,
2013-01-28 06:48:00,33.5,29.8,23.28,East,98,5.0,10.0,86,0.01,,,0.01,VWS V13.01,2013-01-28 11:48:00,
2013-01-28 06:53:00,33.6,29.9,23.28,NE,55,3.0,4.0,86,0.01,,,0.01,VWS V13.01,2013-01-28 11:53:00,
2013-01-28 06:58:00,33.8,30.1,23.28,SE,144,4.0,4.0,86,0.01,,,0.01,VWS V13.01,2013-01-28 11:58:00,
2013-01-28 07:03:00,33.6,29.9,23.28,SSE,163,0.0,9.0,86,0.02,,,0.02,VWS V13.01,2013-01-28 12:03:00,
2013-01-28 07:08:00,33.5,30.0,23.28,SE,132,1.0,4.0,87,0.02,,,0.02,VWS V13.01,2013-01-28 12:08:00,
2013-01-28 07:13:00,33.6,30.1,23.28,East,82,1.0,7.0,87,0.02,,,0.02,VWS V13.01,2013-01-28 12:13:00,
2013-01-28 07:18:00,33.5,30.0,23.28,NE,56,4.0,6.0,87,0.03,,,0.03,VWS V13.01,2013-01-28 12:18:00,
2013-01-28 07:23:00,33.7,30.5,23.28,ENE,69,1.0,3.0,88,0.03,,,0.03,VWS V13.01,2013-01-28 12:23:00,
2013-01-28 07:28:00,33.6,30.4,23.28,ENE,66,9.0,9.0,88,0.02,,,0.03,VWS V13.01,2013-01-28 12:28:00,
2013-01-28 07:33:00,33.6,30.4,23.28,ENE,58,1.0,5.0,88,0.02,,,0.03,VWS V13.01,2013-01-28 12:33:00,
2013-01-28 07:38:00,33.7,30.5,23.28,NE,45,2.0,5.0,88,0.02,,,0.03,VWS V13.01,2013-01-28 12:38:00,
2013-01-28 07:43:00,33.7,30.5,23.28,East,91,2.0,9.0,88,0.02,,,0.03,VWS V13.01,2013-01-28 12:43:00,
2013-01-28 07:48:00,33.7,30.5,23.28,ENE,76,2.0,5.0,88,0.03,,,0.04,VWS V13.01,2013-01-28 12:48:00,
2013-01-28 07:53:00,33.6,30.4,23.28,ENE,74,7.0,7.0,88,0.03,,,0.04,VWS V13.01,2013-01-28 12:53:00,
2013-01-28 07:58:00,33.6,30.7,23.28,ENE,66,6.0,12.0,89,0.03,,,0.04,VWS V13.01,2013-01-28 12:58:00,
2013-01-28 08:03:00,33.6,30.7,23.28,East,87,3.0,9.0,89,0.02,,,0.05,VWS V13.01,2013-01-28 13:03:00,
2013-01-28 08:08:00,33.6,30.7,23.28,East,97,2.0,3.0,89,0.03,,,0.05,VWS V13.01,2013-01-28 13:08:00,
2013-01-28 08:13:00,33.7,30.8,23.28,NE,48,1.0,4.0,89,0.03,,,0.05,VWS V13.01,2013-01-28 13:13:00,
2013-01-28 08:18:00,33.8,30.9,23.28,ENE,73,5.0,7.0,89,0.02,,,0.05,VWS V13.01,2013-01-28 13:18:00,
2013-01-28 08:23:00,33.9,31.0,23.28,East,93,4.0,4.0,89,0.02,,,0.05,VWS V13.01,2013-01-28 13:23:00,
2013-01-28 08:28:00,33.8,30.9,23.28,ENE,71,4.0,7.0,89,0.02,,,0.05,VWS V13.01,2013-01-28 13:28:00,
2013-01-28 08:33:00,33.7,30.8,23.28,East,91,1.0,5.0,89,0.03,,,0.06,VWS V13.01,2013-01-28 13:33:00,
2013-01-28 08:38:00,33.8,32.8,23.28,ESE,106,6.0,6.0,96,0.03,,,0.06,VWS V13.01,2013-01-28 13:38:00,
2013-01-28 08:43:00,33.8,30.9,23.28,ENE,69,4.0,5.0,89,0.03,,,0.06,VWS V13.01,2013-01-28 13:43:00,
2013-01-28 08:48:00,33.8,31.2,23.28,ESE,115,4.0,6.0,90,0.03,,,0.07,VWS V13.01,2013-01-28 13:48:00,
2013-01-28 08:53:00,33.8,31.2,23.28,East,101,5.0,7.0,90,0.03,,,0.07,VWS V13.01,2013-01-28 13:53:00,
2013-01-28 08:58:00,33.8,32.8,23.28,ESE,102,6.0,9.0,96,0.03,,,0.07,VWS V13.01,2013-01-28 13:58:00,
2013-01-28 09:03:00,34.0,31.4,23.28,ENE,67,10.0,10.0,90,0.03,,,0.07,VWS V13.01,2013-01-28 14:03:00,
2013-01-28 09:08:00,33.9,31.3,23.28,ENE,62,3.0,11.0,90,0.03,,,0.08,VWS V13.01,2013-01-28 14:08:00,
2013-01-28 09:13:00,33.9,31.3,23.28,ENE,71,4.0,6.0,90,0.03,,,0.08,VWS V13.01,2013-01-28 14:13:00,
2013-01-28 09:18:00,33.9,31.3,23.28,ESE,107,5.0,5.0,90,0.04,,,0.09,VWS V13.01,2013-01-28 14:18:00,
2013-01-28 09:23:00,34.0,31.4,23.28,East,94,1.0,6.0,90,0.04,,,0.09,VWS V13.01,2013-01-28 14:23:00,
2013-01-28 09:28:00,34.0,31.4,23.28,ESE,113,4.0,10.0,90,0.05,,,0.10,VWS V13.01,2013-01-28 14:28:00,
2013-01-28 09:33:00,34.0,31.4,23.28,NE,49,2.0,8.0,90,0.04,,,0.10,VWS V13.01,2013-01-28 14:33:00,
2013-01-28 09:38:00,34.2,31.6,23.28,ESE,107,2.0,5.0,90,0.05,,,0.11,VWS V13.01,2013-01-28 14:38:00,
2013-01-28 09:43:00,34.3,32.0,23.28,East,96,4.0,8.0,91,0.05,,,0.11,VWS V13.01,2013-01-28 14:43:00,
2013-01-28 09:48:00,34.1,31.5,23.28,ESE,103,3.0,5.0,90,0.04,,,0.11,VWS V13.01,2013-01-28 14:48:00,
2013-01-28 09:53:00,34.2,31.9,23.28,East,87,2.0,4.0,91,0.05,,,0.12,VWS V13.01,2013-01-28 14:53:00,
2013-01-28 09:58:00,34.4,32.0,23.28,ENE,69,6.0,9.0,91,0.05,,,0.12,VWS V13.01,2013-01-28 14:58:00,
2013-01-28 10:03:00,34.3,32.0,23.28,ESE,111,3.0,3.0,91,0.05,,,0.12,VWS V13.01,2013-01-28 15:03:00,
2013-01-28 10:08:00,34.4,32.0,23.28,SSE,168,3.0,6.0,91,0.04,,,0.13,VWS V13.01,2013-01-28 15:08:00,
2013-01-28 10:13:00,34.4,32.0,23.28,ESE,107,3.0,6.0,91,0.05,,,0.13,VWS V13.01,2013-01-28 15:13:00,
2013-01-28 10:18:00,34.4,32.0,23.28,ENE,61,0.0,6.0,91,0.04,,,0.13,VWS V13.01,2013-01-28 15:18:00,
2013-01-28 10:23:00,34.4,32.0,23.28,ESE,107,1.0,8.0,91,0.04,,,0.13,VWS V13.01,2013-01-28 15:23:00,
2013-01-28 10:28:00,34.4,32.0,23.28,SE,125,5.0,6.0,91,0.04,,,0.13,VWS V13.01,2013-01-28 15:28:00,
2013-01-28 10:33:00,34.4,32.0,23.28,East,85,5.0,6.0,91,0.03,,,0.13,VWS V13.01,2013-01-28 15:33:00,
2013-01-28 10:38:00,34.4,32.0,23.28,East,91,1.0,5.0,91,0.02,,,0.13,VWS V13.01,2013-01-28 15:38:00,
2013-01-28 10:43:00,34.4,32.0,23.28,NE,48,5.0,9.0,91,0.02,,,0.13,VWS V13.01,2013-01-28 15:43:00,
2013-01-28 10:48:00,34.7,32.3,23.28,ENE,75,5.0,6.0,91,0.02,,,0.13,VWS V13.01,2013-01-28 15:48:00,
2013-01-28 10:53:00,34.6,32.2,23.28,SE,131,3.0,4.0,91,0.02,,,0.13,VWS V13.01,2013-01-28 15:53:00,
2013-01-28 10:58:00,34.7,32.3,23.28,East,99,1.0,11.0,91,0.01,,,0.13,VWS V13.01,2013-01-28 15:58:00,
2013-01-28 11:03:00,34.7,32.3,23.28,NE,54,3.0,7.0,91,0.02,,,0.14,VWS V13.01,2013-01-28 16:03:00,
2013-01-28 11:08:00,34.8,32.5,23.28,East,83,3.0,5.0,91,0.02,,,0.14,VWS V13.01,2013-01-28 16:08:00,
2013-01-28 11:13:00,35.0,32.6,23.28,East,86,4.0,10.0,91,0.01,,,0.14,VWS V13.01,2013-01-28 16:13:00,
2013-01-28 11:18:00,35.1,32.7,23.28,ENE,64,4.0,6.0,91,0.01,,,0.14,VWS V13.01,2013-01-28 16:18:00,
2013-01-28 11:23:00,35.3,32.9,23.28,ESE,119,3.0,6.0,91,0.01,,,0.14,VWS V13.01,2013-01-28 16:23:00,
2013-01-28 11:28:00,35.5,33.4,23.28,ESE,103,9.0,9.0,92,0.01,,,0.14,VWS V13.01,2013-01-28 16:28:00,
2013-01-28 11:33:00,35.6,33.5,23.28,East,97,6.0,10.0,92,0.01,,,0.14,VWS V13.01,2013-01-28 16:33:00,
2013-01-28 11:38:00,35.7,33.6,23.28,ESE,123,4.0,10.0,92,0.01,,,0.14,VWS V13.01,2013-01-28 16:38:00,
2013-01-28 11:43:00,36.0,33.6,23.28,ENE,59,1.0,4.0,91,0.01,,,0.14,VWS V13.01,2013-01-28 16:43:00,
2013-01-28 11:48:00,36.0,33.6,23.28,ENE,68,8.0,10.0,91,0.01,,,0.14,VWS V13.01,2013-01-28 16:48:00,
2013-01-28 11:53:00,36.0,33.6,23.28,ESE,104,3.0,4.0,91,0.01,,,0.14,VWS V13.01,2013-01-28 16:53:00,
2013-01-28 11:58:00,36.1,33.7,23.28,ENE,57,4.0,5.0,91,0.01,,,0.14,VWS V13.01,2013-01-28 16:58:00,
2013-01-28 12:03:00,36.2,33.8,23.28,East,85,7.0,13.0,91,0.00,,,0.14,VWS V13.01,2013-01-28 17:03:00,
2013-01-28 12:08:00,36.4,34.0,23.28,SE,146,1.0,4.0,91,0.00,,,0.14,VWS V13.01,2013-01-28 17:08:00,
2013-01-28 12:13:00,36.9,34.8,23.28,East,85,7.0,9.0,92,0.00,,,0.14,VWS V13.01,2013-01-28 17:13:00,
2013-01-28 12:18:00,36.8,34.4,23.28,ENE,63,4.0,4.0,91,0.00,,,0.14,VWS V13.01,2013-01-28 17:18:00,
2013-01-28 12:23:00,36.8,34.4,23.28,East,86,6.0,15.0,91,0.00,,,0.14,VWS V13.01,2013-01-28 17:23:00,
2013-01-28 12:28:00,36.9,34.5,23.28,ESE,107,6.0,6.0,91,0.00,,,0.14,VWS V13.01,2013-01-28 17:28:00,
2013-01-28 12:34:00,37.0,34.6,23.28,ENE,74,3.0,10.0,91,0.01,,,0.15,VWS V13.01,2013-01-28 17:34:00,
2013-01-28 12:39:00,37.0,34.6,23.28,East,96,4.0,11.0,91,0.01,,,0.15,VWS V13.01,2013-01-28 17:39:00,
2013-01-28 12:43:00,37.2,34.8,23.28,SE,130,2.0,7.0,91,0.01,,,0.15,VWS V13.01,2013-01-28 17:43:00,
2013-01-28 12:49:00,37.4,35.0,23.28,ESE,104,7.0,7.0,91,0.01,,,0.15,VWS V13.01,2013-01-28 17:49:00,
2013-01-28 12:53:00,37.6,35.2,23.28,SSE,152,1.0,4.0,91,0.01,,,0.15,VWS V13.01,2013-01-28 17:53:00,
2013-01-28 12:59:00,37.5,35.1,23.28,East,79,9.0,9.0,91,0.01,,,0.15,VWS V13.01,2013-01-28 17:59:00,
2013-01-28 13:04:00,37.7,35.3,23.28,East,88,3.0,6.0,91,0.01,,,0.15,VWS V13.01,2013-01-28 18:04:00,
2013-01-28 13:08:00,37.8,35.4,23.28,SE,133,3.0,7.0,91,0.01,,,0.15,VWS V13.01,2013-01-28 18:08:00,
2013-01-28 13:13:00,38.3,35.9,23.28,ENE,63,4.0,4.0,91,0.01,,,0.15,VWS V13.01,2013-01-28 18:13:00,
2013-01-28 13:18:00,38.3,35.9,23.28,ESE,111,4.0,6.0,91,0.01,,,0.15,VWS V13.01,2013-01-28 18:18:00,
2013-01-28 13:23:00,38.3,35.9,23.28,East,88,9.0,11.0,91,0.01,,,0.15,VWS V13.01,2013-01-28 18:23:00,
2013-01-28 13:28:00,38.3,35.6,23.28,NNE,33,1.0,5.0,90,0.01,,,0.15,VWS V13.01,2013-01-28 18:28:00,
2013-01-28 13:33:00,38.3,35.6,23.28,East,92,5.0,7.0,90,0.00,,,0.15,VWS V13.01,2013-01-28 18:33:00,
2013-01-28 13:38:00,38.4,35.7,23.28,ENE,76,4.0,5.0,90,0.00,,,0.15,VWS V13.01,2013-01-28 18:38:00,
2013-01-28 13:43:00,38.8,36.4,23.28,East,89,1.0,4.0,91,0.00,,,0.15,VWS V13.01,2013-01-28 18:43:00,
2013-01-28 13:48:00,38.9,36.2,23.28,East,92,3.0,6.0,90,0.00,,,0.15,VWS V13.01,2013-01-28 18:48:00,
2013-01-28 13:53:00,39.1,36.4,23.28,ENE,70,1.0,2.0,90,0.00,,,0.15,VWS V13.01,2013-01-28 18:53:00,
2013-01-28 13:58:00,39.4,36.7,23.28,East,82,0.0,4.0,90,0.00,,,0.15,VWS V13.01,2013-01-28 18:58:00,
2013-01-28 14:03:00,39.5,36.8,23.28,ENE,67,2.0,7.0,90,0.00,,,0.15,VWS V13.01,2013-01-28 19:03:00,
2013-01-28 14:08:00,39.7,37.0,23.28,ENE,78,3.0,6.0,90,0.00,,,0.15,VWS V13.01,2013-01-28 19:08:00,
2013-01-28 14:13:00,39.8,37.1,23.28,NE,51,2.0,5.0,90,0.00,,,0.15,VWS V13.01,2013-01-28 19:13:00,
2013-01-28 14:18:00,40.1,37.4,23.28,ENE,64,1.0,2.0,90,0.00,,,0.15,VWS V13.01,2013-01-28 19:18:00,
2013-01-28 14:23:00,40.2,37.5,23.28,ESE,117,5.0,7.0,90,0.00,,,0.15,VWS V13.01,2013-01-28 19:23:00,
2013-01-28 14:28:00,40.7,38.0,23.28,SE,125,2.0,3.0,90,0.00,,,0.15,VWS V13.01,2013-01-28 19:28:00,
2013-01-28 14:33:00,41.1,38.4,23.28,ESE,113,3.0,5.0,90,0.00,,,0.15,VWS V13.01,2013-01-28 19:33:00,
2013-01-28 14:38:00,41.5,38.5,23.28,SE,126,5.0,6.0,89,0.00,,,0.15,VWS V13.01,2013-01-28 19:38:00,
2013-01-28 14:43:00,41.9,38.9,23.28,East,80,2.0,6.0,89,0.00,,,0.15,VWS V13.01,2013-01-28 19:43:00,
2013-01-28 14:48:00,42.2,38.9,23.28,ESE,114,2.0,4.0,88,0.00,,,0.15,VWS V13.01,2013-01-28 19:48:00,
2013-01-28 14:53:00,42.4,38.8,23.28,SE,130,7.0,7.0,87,0.00,,,0.15,VWS V13.01,2013-01-28 19:53:00,
2013-01-28 14:58:00,42.3,38.7,23.28,ENE,59,4.0,5.0,87,0.00,,,0.15,VWS V13.01,2013-01-28 19:58:00,
2013-01-28 15:03:00,42.5,38.9,23.28,SSE,161,2.0,6.0,87,0.00,,,0.15,VWS V13.01,2013-01-28 20:03:00,
2013-01-28 15:08:00,42.6,38.7,23.28,ENE,76,4.0,6.0,86,0.00,,,0.15,VWS V13.01,2013-01-28 20:08:00,
2013-01-28 15:13:00,42.8,38.9,23.28,East,91,3.0,4.0,86,0.00,,,0.15,VWS V13.01,2013-01-28 20:13:00,
2013-01-28 15:18:00,43.0,39.1,23.28,East,90,1.0,5.0,86,0.00,,,0.15,VWS V13.01,2013-01-28 20:18:00,
2013-01-28 15:23:00,43.1,39.2,23.28,East,94,4.0,6.0,86,0.00,,,0.15,VWS V13.01,2013-01-28 20:23:00,
2013-01-28 15:28:00,43.1,39.2,23.28,ENE,59,0.0,6.0,86,0.00,,,0.15,VWS V13.01,2013-01-28 20:28:00,
2013-01-28 15:33:00,43.2,39.0,23.28,ESE,115,3.0,3.0,85,0.00,,,0.15,VWS V13.01,2013-01-28 20:33:00,
2013-01-28 15:38:00,43.3,39.1,23.28,East,95,3.0,4.0,85,0.00,,,0.15,VWS V13.01,2013-01-28 20:38:00,
2013-01-28 15:43:00,43.5,39.3,23.28,East,92,1.0,3.0,85,0.00,,,0.15,VWS V13.01,2013-01-28 20:43:00,
2013-01-28 15:48:00,43.7,39.5,23.28,ESE,122,1.0,5.0,85,0.00,,,0.15,VWS V13.01,2013-01-28 20:48:00,
2013-01-28 15:53:00,43.7,39.5,23.28,ESE,113,3.0,3.0,85,0.00,,,0.15,VWS V13.01,2013-01-28 20:53:00,
2013-01-28 15:58:00,43.8,39.6,23.28,ESE,103,3.0,4.0,85,0.00,,,0.15,VWS V13.01,2013-01-28 20:58:00,
2013-01-28 16:03:00,44.1,39.9,23.28,East,84,1.0,4.0,85,0.00,,,0.15,VWS V13.01,2013-01-28 21:03:00,
2013-01-28 16:08:00,44.1,39.9,23.28,ESE,123,0.0,2.0,85,0.00,,,0.15,VWS V13.01,2013-01-28 21:08:00,
2013-01-28 16:13:00,44.2,40.0,23.28,SE,141,1.0,4.0,85,0.00,,,0.15,VWS V13.01,2013-01-28 21:13:00,
2013-01-28 16:18:00,44.3,40.1,23.28,SSE,157,1.0,3.0,85,0.00,,,0.15,VWS V13.01,2013-01-28 21:18:00,
2013-01-28 16:23:00,44.4,39.9,23.28,South,173,2.0,4.0,84,0.00,,,0.15,VWS V13.01,2013-01-28 21:23:00,
2013-01-28 16:28:00,44.5,40.0,23.28,ESE,119,2.0,4.0,84,0.00,,,0.15,VWS V13.01,2013-01-28 21:28:00,
2013-01-28 16:33:00,44.5,40.0,23.28,ESE,121,4.0,5.0,84,0.00,,,0.15,VWS V13.01,2013-01-28 21:33:00,
2013-01-28 16:38:00,44.6,40.1,23.28,East,101,0.0,5.0,84,0.00,,,0.15,VWS V13.01,2013-01-28 21:38:00,
2013-01-28 16:43:00,44.7,40.2,23.28,ESE,122,3.0,4.0,84,0.00,,,0.15,VWS V13.01,2013-01-28 21:43:00,
2013-01-28 16:48:00,45.0,40.5,23.28,ESE,121,2.0,3.0,84,0.00,,,0.15,VWS V13.01,2013-01-28 21:48:00,
2013-01-28 16:53:00,45.0,40.5,23.28,SSE,152,4.0,5.0,84,0.00,,,0.15,VWS V13.01,2013-01-28 21:53:00,
2013-01-28 16:58:00,45.0,40.5,23.28,SE,142,3.0,4.0,84,0.00,,,0.15,VWS V13.01,2013-01-28 21:58:00,
2013-01-28 17:03:00,45.1,40.6,23.28,ESE,111,0.0,3.0,84,0.00,,,0.15,VWS V13.01,2013-01-28 22:03:00,
2013-01-28 17:08:00,45.1,40.6,23.28,ESE,114,0.0,3.0,84,0.00,,,0.15,VWS V13.01,2013-01-28 22:08:00,
2013-01-28 17:13:00,45.2,40.7,23.28,ESE,113,2.0,2.0,84,0.00,,,0.15,VWS V13.01,2013-01-28 22:13:00,
2013-01-28 17:18:00,45.2,40.7,23.28,ESE,114,0.0,1.0,84,0.00,,,0.15,VWS V13.01,2013-01-28 22:18:00,
2013-01-28 17:23:00,45.2,41.0,23.28,ESE,114,0.0,2.0,85,0.00,,,0.15,VWS V13.01,2013-01-28 22:23:00,
2013-01-28 17:28:00,45.3,40.8,23.28,SE,140,0.0,3.0,84,0.00,,,0.15,VWS V13.01,2013-01-28 22:28:00,
2013-01-28 17:33:00,45.3,41.1,23.28,SE,140,0.0,1.0,85,0.00,,,0.15,VWS V13.01,2013-01-28 22:33:00,
2013-01-28 17:38:00,45.4,41.2,23.28,SE,140,0.0,1.0,85,0.00,,,0.15,VWS V13.01,2013-01-28 22:38:00,
2013-01-28 17:43:00,45.6,41.4,23.28,SE,136,1.0,1.0,85,0.00,,,0.15,VWS V13.01,2013-01-28 22:43:00,
2013-01-28 17:48:00,45.8,41.5,23.28,SE,135,0.0,2.0,85,0.00,,,0.15,VWS V13.01,2013-01-28 22:48:00,
2013-01-28 17:53:00,45.8,41.5,23.28,SE,135,0.0,1.0,85,0.00,,,0.15,VWS V13.01,2013-01-28 22:53:00,
2013-01-28 17:58:00,45.7,41.5,23.28,SE,134,0.0,0.0,85,0.00,,,0.15,VWS V13.01,2013-01-28 22:58:00,
2013-01-28 18:03:00,45.7,41.5,23.28,SE,136,0.0,1.0,85,0.00,,,0.15,VWS V13.01,2013-01-28 23:03:00,
2013-01-28 18:08:00,45.9,41.7,23.28,SE,136,0.0,0.0,85,0.00,,,0.15,VWS V13.01,2013-01-28 23:08:00,
2013-01-28 18:13:00,46.0,41.8,23.28,ESE,115,1.0,2.0,85,0.00,,,0.15,VWS V13.01,2013-01-28 23:13:00,
2013-01-28 18:18:00,46.1,41.8,23.28,ESE,115,0.0,0.0,85,0.00,,,0.15,VWS V13.01,2013-01-28 23:18:00,
2013-01-28 18:23:00,46.1,41.8,23.28,ESE,115,0.0,0.0,85,0.00,,,0.15,VWS V13.01,2013-01-28 23:23:00,
2013-01-28 18:28:00,46.2,42.0,23.28,ESE,115,1.0,3.0,85,0.00,,,0.15,VWS V13.01,2013-01-28 23:28:00,
2013-01-28 18:33:00,46.5,42.2,23.28,ESE,115,0.0,1.0,85,0.00,,,0.15,VWS V13.01,2013-01-28 23:33:00,
2013-01-28 18:38:00,46.9,42.3,23.28,ESE,115,0.0,0.0,84,0.00,,,0.15,VWS V13.01,2013-01-28 23:38:00,
2013-01-28 18:43:00,47.0,42.4,23.28,ESE,115,0.0,1.0,84,0.00,,,0.15,VWS V13.01,2013-01-28 23:43:00,
2013-01-28 18:48:00,47.0,42.4,23.28,ESE,115,0.0,1.0,84,0.00,,,0.15,VWS V13.01,2013-01-28 23:48:00,
2013-01-28 18:53:00,46.9,42.0,23.28,ESE,115,1.0,2.0,83,0.00,,,0.15,VWS V13.01,2013-01-28 23:53:00,
2013-01-28 18:58:00,47.0,42.1,23.28,ESE,117,2.0,2.0,83,0.00,,,0.15,VWS V13.01,2013-01-28 23:58:00,
2013-01-28 19:03:00,47.0,42.1,23.28,ESE,117,0.0,0.0,83,0.00,,,0.15,VWS V13.01,2013-01-29 00:03:00,
2013-01-28 19:08:00,47.0,42.1,23.28,ESE,117,0.0,0.0,83,0.00,,,0.15,VWS V13.01,2013-01-29 00:08:00,
2013-01-28 19:13:00,47.1,42.2,23.28,ESE,117,0.0,0.0,83,0.00,,,0.15,VWS V13.01,2013-01-29 00:13:00,
2013-01-28 19:18:00,47.0,42.1,23.28,ESE,117,0.0,0.0,83,0.00,,,0.15,VWS V13.01,2013-01-29 00:18:00,
2013-01-28 19:23:00,46.9,42.0,23.28,ESE,117,0.0,0.0,83,0.00,,,0.15,VWS V13.01,2013-01-29 00:23:00,
2013-01-28 19:28:00,46.7,41.8,23.28,ESE,117,0.0,1.0,83,0.00,,,0.15,VWS V13.01,2013-01-29 00:28:00,
2013-01-28 19:33:00,46.3,41.4,23.28,ESE,117,0.0,0.0,83,0.00,,,0.15,VWS V13.01,2013-01-29 00:33:00,
2013-01-28 19:38:00,46.3,41.7,23.28,ESE,117,1.0,1.0,84,0.00,,,0.15,VWS V13.01,2013-01-29 00:38:00,
2013-01-28 19:43:00,46.5,41.9,23.28,ESE,117,0.0,1.0,84,0.00,,,0.15,VWS V13.01,2013-01-29 00:43:00,
2013-01-28 19:48:00,46.5,41.6,23.28,ESE,117,0.0,0.0,83,0.00,,,0.15,VWS V13.01,2013-01-29 00:48:00,
2013-01-28 19:53:00,46.1,41.2,23.28,ESE,117,0.0,3.0,83,0.00,,,0.15,VWS V13.01,2013-01-29 00:53:00,
2013-01-28 19:58:00,46.1,41.5,23.28,ESE,117,0.0,1.0,84,0.00,,,0.15,VWS V13.01,2013-01-29 00:58:00,
2013-01-28 20:03:00,46.0,41.4,23.28,ESE,117,1.0,2.0,84,0.00,,,0.15,VWS V13.01,2013-01-29 01:03:00,
2013-01-28 20:08:00,46.0,41.4,23.28,ESE,117,1.0,2.0,84,0.00,,,0.15,VWS V13.01,2013-01-29 01:08:00,
2013-01-28 20:13:00,46.2,41.6,23.28,SE,126,0.0,0.0,84,0.00,,,0.15,VWS V13.01,2013-01-29 01:13:00,
2013-01-28 20:18:00,46.3,41.4,23.28,SE,126,1.0,2.0,83,0.00,,,0.15,VWS V13.01,2013-01-29 01:18:00,
2013-01-28 20:23:00,46.1,41.2,23.28,SE,126,0.0,2.0,83,0.00,,,0.15,VWS V13.01,2013-01-29 01:23:00,
2013-01-28 20:28:00,46.1,41.5,23.28,SE,126,0.0,1.0,84,0.00,,,0.15,VWS V13.01,2013-01-29 01:28:00,
2013-01-28 20:33:00,45.8,40.9,23.28,SE,126,0.0,0.0,83,0.00,,,0.15,VWS V13.01,2013-01-29 01:33:00,
2013-01-28 20:38:00,45.4,40.9,23.28,SE,126,0.0,0.0,84,0.00,,,0.15,VWS V13.01,2013-01-29 01:38:00,
2013-01-28 20:43:00,45.1,40.6,23.28,SE,126,0.0,1.0,84,0.00,,,0.15,VWS V13.01,2013-01-29 01:43:00,
2013-01-28 20:48:00,44.7,40.5,23.28,SE,126,0.0,0.0,85,0.00,,,0.15,VWS V13.01,2013-01-29 01:48:00,
2013-01-28 20:53:00,44.5,40.3,23.28,SE,126,1.0,2.0,85,0.00,,,0.15,VWS V13.01,2013-01-29 01:53:00,
2013-01-28 20:58:00,44.5,40.6,23.28,SE,126,0.0,0.0,86,0.00,,,0.15,VWS V13.01,2013-01-29 01:58:00,
2013-01-28 21:03:00,45.0,41.1,23.28,SE,126,0.0,2.0,86,0.00,,,0.15,VWS V13.01,2013-01-29 02:03:00,
2013-01-28 21:08:00,45.4,41.2,23.28,SE,126,1.0,2.0,85,0.00,,,0.15,VWS V13.01,2013-01-29 02:08:00,
2013-01-28 21:13:00,45.7,41.5,23.28,SE,127,0.0,2.0,85,0.00,,,0.15,VWS V13.01,2013-01-29 02:13:00,
2013-01-28 21:18:00,45.8,41.2,23.28,SE,127,0.0,1.0,84,0.00,,,0.15,VWS V13.01,2013-01-29 02:18:00,
2013-01-28 21:23:00,46.0,41.4,23.28,SE,126,0.0,1.0,84,0.00,,,0.15,VWS V13.01,2013-01-29 02:23:00,
2013-01-28 21:28:00,46.2,41.6,23.28,SE,127,0.0,1.0,84,0.00,,,0.15,VWS V13.01,2013-01-29 02:28:00,
2013-01-28 21:33:00,46.4,41.8,23.28,SE,127,0.0,0.0,84,0.00,,,0.15,VWS V13.01,2013-01-29 02:33:00,
2013-01-28 21:38:00,46.7,42.1,23.28,SE,126,0.0,1.0,84,0.00,,,0.15,VWS V13.01,2013-01-29 02:38:00,
2013-01-28 21:44:00,47.0,42.1,23.28,SE,127,0.0,0.0,83,0.00,,,0.15,VWS V13.01,2013-01-29 02:44:00,
2013-01-28 21:49:00,47.0,42.1,23.28,SE,127,1.0,2.0,83,0.00,,,0.15,VWS V13.01,2013-01-29 02:49:00,
2013-01-28 21:54:00,47.0,42.1,23.28,SE,127,0.0,0.0,83,0.00,,,0.15,VWS V13.01,2013-01-29 02:54:00,
2013-01-28 21:59:00,46.8,41.9,23.28,SE,127,0.0,2.0,83,0.00,,,0.15,VWS V13.01,2013-01-29 02:59:00,
2013-01-28 22:04:00,46.8,41.9,23.28,SE,128,0.0,2.0,83,0.00,,,0.15,VWS V13.01,2013-01-29 03:04:00,
2013-01-28 22:09:00,47.0,42.1,23.28,SE,126,0.0,1.0,83,0.00,,,0.15,VWS V13.01,2013-01-29 03:09:00,
2013-01-28 22:14:00,47.1,41.9,23.28,SE,127,0.0,2.0,82,0.00,,,0.15,VWS V13.01,2013-01-29 03:14:00,
2013-01-28 22:19:00,47.1,42.2,23.28,SE,127,0.0,1.0,83,0.00,,,0.15,VWS V13.01,2013-01-29 03:19:00,
2013-01-28 22:24:00,47.2,42.3,23.28,SE,127,0.0,1.0,83,0.00,,,0.15,VWS V13.01,2013-01-29 03:24:00,
2013-01-28 22:29:00,47.3,42.4,23.28,SE,127,0.0,2.0,83,0.00,,,0.15,VWS V13.01,2013-01-29 03:29:00,
2013-01-28 22:34:00,47.5,42.6,23.28,SE,127,0.0,2.0,83,0.00,,,0.15,VWS V13.01,2013-01-29 03:34:00,
2013-01-28 22:39:00,47.4,42.2,23.28,SE,127,1.0,1.0,82,0.00,,,0.15,VWS V13.01,2013-01-29 03:39:00,
2013-01-28 22:44:00,47.2,42.3,23.28,SE,126,0.0,2.0,83,0.00,,,0.15,VWS V13.01,2013-01-29 03:44:00,
2013-01-28 22:49:00,47.0,42.1,23.28,SE,126,0.0,3.0,83,0.00,,,0.15,VWS V13.01,2013-01-29 03:49:00,
2013-01-28 22:54:00,46.9,42.0,23.28,ESE,122,2.0,3.0,83,0.00,,,0.15,VWS V13.01,2013-01-29 03:54:00,
2013-01-28 22:59:00,47.2,42.6,23.28,ESE,120,0.0,3.0,84,0.00,,,0.15,VWS V13.01,2013-01-29 03:59:00,
2013-01-28 23:04:00,47.6,42.7,23.28,ESE,121,2.0,2.0,83,0.00,,,0.15,VWS V13.01,2013-01-29 04:04:00,
2013-01-28 23:09:00,48.0,43.1,23.28,ESE,121,1.0,3.0,83,0.00,,,0.15,VWS V13.01,2013-01-29 04:09:00,
2013-01-28 23:14:00,48.2,43.3,23.28,ESE,102,0.0,2.0,83,0.00,,,0.15,VWS V13.01,2013-01-29 04:14:00,
2013-01-28 23:19:00,48.3,43.4,23.28,SSE,163,4.0,4.0,83,0.00,,,0.15,VWS V13.01,2013-01-29 04:19:00,
2013-01-28 23:24:00,48.6,43.7,23.28,ESE,115,0.0,4.0,83,0.00,,,0.15,VWS V13.01,2013-01-29 04:24:00,
2013-01-28 23:29:00,48.5,43.3,23.28,ESE,115,1.0,3.0,82,0.00,,,0.15,VWS V13.01,2013-01-29 04:29:00,
2013-01-28 23:34:00,48.6,43.7,23.28,ESE,119,2.0,2.0,83,0.00,,,0.15,VWS V13.01,2013-01-29 04:34:00,
2013-01-28 23:39:00,48.7,43.5,23.28,ESE,111,2.0,3.0,82,0.00,,,0.15,VWS V13.01,2013-01-29 04:39:00,
2013-01-28 23:44:00,48.8,43.6,23.28,ESE,113,0.0,2.0,82,0.00,,,0.15,VWS V13.01,2013-01-29 04:44:00,
2013-01-28 23:49:00,48.8,43.6,23.28,ESE,114,0.0,3.0,82,0.00,,,0.15,VWS V13.01,2013-01-29 04:49:00,
2013-01-28 23:54:00,48.8,43.9,23.28,SE,126,1.0,3.0,83,0.00,,,0.00,VWS V13.01,2013-01-29 04:54:00,
2013-01-28 23:59:00,48.9,44.0,23.28,SSE,148,3.0,3.0,83,0.00,,,0.00,VWS V13.01,2013-01-29 04:59:00,